Weather in Hammerfest

Norway     70°40′05″N   23°41′47″E
temp.,
°C
wind,
m/s
gust,
m/s
humid.,
%
clouds,
%
prec.,
mm/h
press.,
hPa
HPBL,
m
4 march, thu
thu401:00−4nnw111276100 1.4 10091070
04:00−5nnw101178100 0.5 1009985
07:00−4nnw91071100 0.9 1009873
10:00−3nw91071100 0.3 10091074
13:00−2nnw7873100 1.1 1009856
16:00−3n7870100 1.3 1010791
19:00−3n7967100 2.3 1011964
22:00−3n7865100 0.6 1012863
5 march, fri
fri501:00−3n7871100 1.5 1012779
04:00−4n7868100 0.7 1012903
07:00−4nnw7869100 1.2 1012868
10:00−4nw7871100 0.5 1012974
13:00−4nw6768100 0.7 1011892
16:00−4sw3379100 0.1 1009390
19:00−4ssw7875100 0.6 1005466
22:00−4s7973100 0.0 1001386
6 march, sat
sat601:00−4s7864100 0.0 996264
04:00−4s5672100 0.3 992283
07:00−5se4591100 1.1 988179
10:00−6sse6884100 0.4 987605
13:00−5sse6891100 1.3 988603
16:00−3wsw111384100 1.8 989850
19:00−5se5684100 2.0 993322
22:00−7ese458074 0.0 998318
7 march, sun
sun701:00−8ese337754 0.0 1003240
04:00−8ssw22747 0.0 1006125
07:00−6wsw336925 0.0 1008299
10:00−4nnw359399 1.0 1010408
13:00−2nw12147699 2.3 10101153
16:00−2nne10127078 1.0 10121050
19:00−3n457289 1.9 1013533
22:00−3nnw5671100 0.8 1014643
8 march, mon
mon801:00−3wnw4657100 0.9 1013840
04:00−3sw8971100 0.0 1011659
07:00−4ssw101368100 0.0 1008689
10:00−2sw121775100 0.0 1006917
13:00−1w81196100 3.8 1005676
16:000w111497100 4.4 1004771
19:00−1wsw111584100 5.5 1002713
22:00−1sw81181100 0.0 1000512